K0RGI Weather Reports


time (UTC)temp
F
wind
direction
speed
knots
gust
knots
rain 1hr
in
rain 24hr
in
rain mn
in
humidity
%
barometer
mb
20260906105108 73 10 0.0 0.0 0.00 0.00 0.00 98 1015.0
20260906104107 73 26 0.0 0.0 0.00 0.00 0.00 98 1015.0
20260906103107 73 359 0.0 0.0 0.00 0.00 0.00 98 1015.1
20260906102102 73 21 0.0 0.0 0.00 0.00 0.00 98 1014.8
20260906101057 73 21 0.0 0.0 0.00 0.00 0.00 98 1014.8
20260906100053 73 27 0.0 0.0 0.00 0.00 0.00 98 1015.0
20260906095048 73 24 0.0 0.0 0.00 0.00 0.00 98 1014.7
20260906094043 73 26 0.0 0.0 0.00 0.00 0.00 98 1014.6
20260906093039 73 28 0.0 0.0 0.00 0.00 0.00 98 1014.7
20260906092035 73 30 0.0 0.9 0.00 0.00 0.00 98 1014.8
20260906091033 73 28 0.0 0.0 0.00 0.00 0.00 97 1014.7
20260906090028 73 12 0.0 0.0 0.00 0.00 0.00 97 1014.9
20260906085027 73 342 0.0 0.0 0.00 0.00 0.00 97 1014.5
20260906084026 73 18 0.0 0.0 0.00 0.00 0.00 97 1014.6
20260906083021 74 28 0.0 0.0 0.00 0.00 0.00 97 1014.7
20260906082018 74 22 0.0 0.0 0.00 0.00 0.00 96 1014.7
20260906081015 74 4 0.0 0.0 0.00 0.00 0.00 96 1014.7
20260906080013 74 4 0.0 0.0 0.00 0.00 0.00 96 1014.9
20260906075014 74 359 0.0 0.0 0.00 0.00 0.00 96 1015.1
20260906074013 74 348 0.0 0.0 0.00 0.00 0.00 97 1015.2
20260906073010 74 1 0.0 0.0 0.00 0.00 0.00 97 1015.1
20260906072007 74 334 0.0 0.0 0.00 0.00 0.00 97 1015.4
20260906071004 75 352 0.0 0.0 0.00 0.00 0.00 97 1014.6
20260906070001 75 21 0.0 0.0 0.00 0.00 0.00 96 1014.5
20260906064956 75 18 0.0 0.0 0.00 0.00 0.00 96 1014.6
20260906063953 75 19 0.0 0.0 0.00 0.00 0.00 96 1014.6
20260906062949 75 15 0.0 0.0 0.00 0.00 0.00 96 1014.3
20260906061945 75 5 0.0 0.0 0.00 0.00 0.00 96 1014.6
20260906060941 75 5 0.0 0.0 0.00 0.00 0.00 96 1014.6
20260906055940 75 350 0.9 0.9 0.00 0.00 0.00 95 1014.8
20260906054937 75 9 0.0 0.0 0.00 0.00 0.00 95 1014.8
20260906053933 75 28 0.0 0.0 0.00 0.00 0.00 95 1015.3
20260906052930 75 27 0.0 0.0 0.00 0.00 0.00 95 1015.0
20260906051929 75 30 0.0 0.0 0.00 0.00 0.00 95 1015.1
20260906050925 75 24 0.0 0.0 0.00 0.00 0.00 95 1015.1
20260906045924 75 27 0.0 0.0 0.00 0.00 0.00 96 1015.3
20260906044919 75 13 0.0 0.0 0.00 0.00 0.00 96 1015.3
20260906043915 75 10 0.0 0.0 0.00 0.00 0.00 95 1015.3
20260906042912 75 9 0.0 0.0 0.00 0.00 0.00 95 1015.7
20260906041912 75 5 0.0 0.0 0.00 0.00 0.00 95 1015.7
20260906040908 75 16 0.0 0.0 0.00 0.00 0.00 95 1015.8
20260906035905 76 27 0.0 0.0 0.00 0.00 0.00 95 1015.9
20260906034901 76 5 0.0 0.0 0.00 0.00 0.00 95 1015.7
20260906033857 76 5 0.0 0.0 0.00 0.00 0.00 95 1015.7
20260906032853 76 8 0.0 0.0 0.00 0.00 0.00 95 1015.6
20260906031850 76 22 0.0 0.0 0.00 0.00 0.00 94 1015.8
20260906030845 76 27 0.0 0.0 0.00 0.00 0.00 94 1015.6
20260906025840 77 18 0.0 0.0 0.00 0.00 0.00 93 1015.5
20260906024839 77 18 0.0 0.0 0.00 0.00 0.00 93 1015.5
20260906023834 77 18 0.0 0.0 0.00 0.00 0.00 92 1015.3
20260906022831 77 18 0.0 0.0 0.00 0.00 0.00 92 1015.0
20260906021828 77 18 0.0 0.0 0.00 0.00 0.00 91 1014.8
20260906020827 77 18 0.0 0.0 0.00 0.00 0.00 91 1014.8
20260906015827 77 18 0.0 0.0 0.00 0.00 0.00 91 1014.7
20260906014826 78 18 0.0 0.0 0.00 0.00 0.00 90 1014.8
20260906013824 78 19 0.0 0.0 0.00 0.00 0.00 90 1015.1
20260906012820 78 19 0.0 0.0 0.00 0.00 0.00 90 1014.9
20260906011821 78 19 0.0 0.0 0.00 0.00 0.00 89 1014.7
20260906010817 79 20 0.0 0.0 0.00 0.00 0.00 89 1014.5
20260906005814 79 25 0.0 0.0 0.00 0.00 0.00 88 1014.7
20260906004812 79 31 0.0 0.0 0.00 0.00 0.00 88 1014.7
20260906003807 79 273 1.7 1.7 0.00 0.00 0.00 87 1014.7
20260906002804 80 29 0.0 0.0 0.00 0.00 0.00 86 1014.7
20260906001759 80 29 0.0 0.0 0.00 0.00 0.00 85 1014.7
20260906000755 80 9 0.0 0.0 0.00 0.00 0.00 84 1014.7
20260905235750 80 357 0.0 0.0 0.00 0.00 0.00 84 1014.5
20260905234746 81 357 0.0 0.0 0.00 0.00 0.00 83 1014.7
20260905233742 82 357 0.0 0.0 0.00 0.00 0.00 82 1014.5
20260905232741 82 357 0.0 0.0 0.00 0.00 0.00 81 1014.8
20260905231739 82 357 0.0 0.0 0.00 0.00 0.00 81 1014.4
20260905230736 83 12 0.0 0.0 0.00 0.00 0.00 80 1014.7
20260905225733 83 12 0.0 0.0 0.00 0.00 0.00 80 1014.5
20260905224733 83 33 0.0 0.0 0.00 0.00 0.00 79 1014.6
20260905223731 83 305 0.9 1.7 0.00 0.00 0.00 79 1014.6
20260905222729 82 6 0.0 0.0 0.00 0.00 0.00 79 1014.5
20260905221724 83 237 2.6 4.3 0.00 0.00 0.00 79 1014.5
20260905220722 82 30 0.9 0.9 0.00 0.00 0.00 79 1014.4
20260905215717 82 35 0.0 0.0 0.00 0.00 0.00 80 1014.6
20260905214715 82 19 0.0 0.0 0.00 0.00 0.00 82 1014.7
20260905213711 81 22 0.0 0.0 0.00 0.00 0.00 84 1015.0
20260905212708 80 4 0.0 0.0 0.00 0.00 0.00 85 1015.3
20260905211708 80 3 0.0 0.0 0.00 0.00 0.00 84 1015.2
20260905210706 80 321 1.7 1.7 0.00 0.00 0.00 83 1014.9
20260905205704 81 348 0.0 0.0 0.00 0.00 0.00 82 1015.1
20260905204704 81 353 0.0 0.0 0.00 0.00 0.00 82 1014.9
20260905203700 81 348 0.0 0.0 0.00 0.00 0.00 82 1015.3
20260905202656 81 348 0.0 0.0 0.00 0.00 0.00 82 1015.5
20260905201653 81 350 0.9 0.9 0.00 0.00 0.00 82 1015.7
20260905200648 82 326 0.9 1.7 0.00 0.00 0.00 81 1015.7
20260905195647 82 346 0.0 0.9 0.00 0.00 0.00 80 1015.6
20260905194644 82 3 0.0 0.0 0.00 0.00 0.00 83 1015.8
20260905193638 82 354 0.0 0.0 0.00 0.00 0.00 81 1015.8
20260905192634 83 12 0.0 0.0 0.00 0.00 0.00 80 1016.0
20260905191630 82 13 0.0 0.0 0.00 0.00 0.00 80 1016.3
20260905190627 82 14 0.0 0.0 0.00 0.00 0.00 80 1016.3
20260905185625 82 2 0.0 0.9 0.00 0.00 0.00 80 1016.1
20260905184626 82 349 0.9 1.7 0.00 0.00 0.00 80 1016.3
20260905183624 83 4 0.0 0.0 0.00 0.00 0.00 79 1016.3
20260905182619 84 347 0.9 0.9 0.00 0.00 0.00 77 1016.2
20260905181620 87 4 0.0 0.0 0.00 0.00 0.00 72 1016.2
20260905180619 89 352 1.7 2.6 0.00 0.00 0.00 69 1016.3
20260905175620 90 4 1.7 2.6 0.00 0.00 0.00 67 1016.1
20260905174617 92 20 0.9 0.9 0.00 0.00 0.00 63 1016.4
20260905173614 96 328 1.7 1.7 0.00 0.00 0.00 57 1016.2
20260905172614 94 60 0.9 0.9 0.00 0.00 0.00 58 1016.3
20260905171612 93 349 0.9 0.9 0.00 0.00 0.00 59 1016.3
20260905170610 92 2 0.0 0.9 0.00 0.00 0.00 61 1016.2
20260905165605 91 318 1.7 1.7 0.00 0.00 0.00 65 1016.4
20260905164601 92 15 0.0 0.0 0.00 0.00 0.00 67 1016.9
20260905163557 91 346 0.9 0.9 0.00 0.00 0.00 69 1016.9
20260905162555 90 339 0.9 1.7 0.00 0.00 0.00 70 1017.0
20260905161554 89 42 0.0 0.0 0.00 0.00 0.00 70 1016.9
20260905160551 88 43 0.0 0.9 0.00 0.00 0.00 72 1016.8
20260905155551 88 18 0.0 0.0 0.00 0.00 0.00 72 1017.0
20260905154551 89 44 0.0 0.0 0.00 0.00 0.00 71 1016.8
20260905153548 87 61 0.9 1.7 0.00 0.00 0.00 73 1017.0
20260905152549 87 49 0.9 0.9 0.00 0.00 0.00 74 1017.0
20260905151545 86 31 0.0 0.0 0.00 0.00 0.00 76 1017.0
20260905150541 86 45 0.0 0.0 0.00 0.00 0.00 75 1017.4
20260905145538 86 46 0.0 0.0 0.00 0.00 0.00 75 1017.7
20260905144538 85 12 0.0 0.9 0.00 0.00 0.00 76 1017.3
20260905143537 84 50 0.0 0.9 0.00 0.00 0.00 79 1017.6
20260905142537 82 15 0.0 0.9 0.00 0.00 0.00 82 1017.7
20260905141532 82 8 0.0 0.0 0.00 0.00 0.00 83 1017.6
20260905140529 82 26 0.0 0.0 0.00 0.00 0.00 82 1017.8
20260905135524 82 58 0.9 1.7 0.00 0.00 0.00 83 1017.6
20260905134520 81 353 0.0 0.9 0.00 0.00 0.00 85 1017.7
20260905133520 81 21 0.0 0.0 0.00 0.00 0.00 85 1017.9
20260905132519 81 52 0.0 0.9 0.00 0.00 0.00 86 1017.8
20260905131515 80 36 0.0 0.0 0.00 0.00 0.00 88 1017.9
20260905130515 80 45 0.0 0.0 0.00 0.00 0.00 87 1018.1
20260905125510 80 18 0.0 0.0 0.00 0.00 0.00 88 1017.9
20260905124508 79 28 0.0 0.0 0.00 0.00 0.00 91 1017.9
20260905123505 78 17 0.0 0.0 0.00 0.00 0.00 93 1017.9
20260905122500 77 27 0.0 0.0 0.00 0.00 0.00 95 1017.9
20260905121457 76 15 0.0 0.0 0.00 0.00 0.00 97 1017.8
20260905120456 75 11 0.0 0.0 0.00 0.00 0.00 98 1017.8
20260905115457 75 11 0.0 0.0 0.00 0.00 0.00 98 1017.4
20260905114451 75 3 0.0 0.0 0.00 0.00 0.00 98 1017.4
20260905113451 75 14 0.0 0.0 0.00 0.00 0.00 98 1016.9
20260905112448 75 14 0.0 0.0 0.00 0.00 0.00 98 1016.9
20260905111443 75 1 0.0 0.0 0.00 0.00 0.00 98 1016.7
20260905110442 75 0 0.0 0.0 0.00 0.00 0.00 98 1017.0
20260905105437 75 2 0.0 0.0 0.00 0.00 0.00 98 1016.8